Regional Weather Roundup
Issued by NWS

Home | Current Version | Previous Version | Graphics & Text | Print | Product List | Glossary On
Versions: 1 2 3 4 5 6 7 8 9 10 11 12 13 14 15 16 17 18 19 20 21 22 23 24 25 26 27 28 29 30 31 32 33 34 35 36 37 38 39 40 41 42 43 44 45 46 47 48 49 50
000
ASUS43 KLOT 281500
RWRIL

ILLINOIS REGIONAL WEATHER ROUNDUP
NATIONAL WEATHER SERVICE CHICAGO/ROMEOVILLE IL
900 AM CST WED JAN 28 2015

NOTE: "FAIR" INDICATES FEW OR NO CLOUDS BELOW 12,000 FEET WITH NO
SIGNIFICANT WEATHER AND/OR OBSTRUCTIONS TO VISIBILITY.

* THESE STATIONS ARE NOT UNDER NWS QUALITY CONTROL. THEY ALSO MAY NOT
  REPORT WEATHER SUCH AS PRECIPITATION OR FOG.

ILZ001-002-007-009-015-016-024-281600-
NORTHWEST ILLINOIS

CITY           SKY/WX    TMP DP  RH WIND       PRES   REMARKS
MOLINE         MOSUNNY   26  20  77 SE13      30.18F WCI  15
STERLING*      MOSUNNY   27  18  69 S6        30.22F WCI  20
$$

ILZ003-004-008-010-011-017-018-281600-
NORTH CENTRAL ILLINOIS

CITY           SKY/WX    TMP DP  RH WIND       PRES   REMARKS
ROCKFORD       PTSUNNY   25  17  72 SE12      30.25S WCI  14
$$

ILZ005-006-012>014-019>023-281600-
NORTHEAST ILLINOIS

CITY           SKY/WX    TMP DP  RH WIND       PRES   REMARKS
CHICAGO-OHARE  PTSUNNY   24  16  71 S10       30.26F WCI  14
CHICAGO-MIDWAY PTSUNNY   26  16  65 S9        30.27F WCI  17
AURORA         SUNNY     25  18  74 SE9       30.25F WCI  15
WAUKEGAN       MOSUNNY   26  17  68 S7        30.25F WCI  18
DUPAGE AIRPORT SUNNY     24  17  74 S8        30.25F WCI  15
WHEELING       MOSUNNY   25  17  72 S7        30.28F WCI  17
NORTHERLY ISL    N/A     26  14  60 S8          N/A  WCI  18
$$

LMZ740>746-281600-
SOUTHERN LAKE MICHIGAN

STATION/POSITION SKY/WX   TEMP    WIND        PRES    VSBY  WAVE
                          AIR SEA DIR/SP/G                  HT/PER
                          (F)     (DEG/KT/KT) (MB)    (MI)  (FT/S)
WAUKEGAN HARBOR            27     190/ 13/ 16   N/A
HARRISON CRIB              25     170/ 16/ 19   N/A
BURNHAM HARBOR             26     180/  7/  9   N/A
CALUMET HARBOR             23     170/ 10/ 12   N/A
MICHIGAN CITY              22     140/  8/ 10   N/A
$$

ILZ025>027-034>036-040-047-049-050-058-095>099-281600-
WEST-CENTRAL ILLINOIS

CITY           SKY/WX    TMP DP  RH WIND       PRES   REMARKS
QUINCY         SUNNY     31  26  82 SE16G24   30.14S HAZE    WCI  20
$$

ILZ028>032-037-038-041>044-048-051>054-059>061-281600-
CENTRAL ILLINOIS

CITY           SKY/WX    TMP DP  RH WIND       PRES   REMARKS
DECATUR        SUNNY     28  20  71 SE14      30.27F WCI  17
PEORIA         SUNNY     29  19  66 S14       30.23F WCI  18
SPRINGFIELD    MOSUNNY   30  24  78 SE14      30.24F WCI  19
TAYLORVILLE    NOT AVBL
$$

ILZ033-039-045-046-055>057-062-063-281600-
EAST-CENTRAL ILLINOIS

CITY           SKY/WX    TMP DP  RH WIND       PRES   REMARKS
CHAMPAIGN      MOSUNNY   26  19  74 SE14      30.28S WCI  14
MATTOON        FAIR      26  18  71 S12       30.29R WCI  16
$$

ILZ079-100>102-281600-
SOUTHWEST ILLINOIS

CITY           SKY/WX    TMP DP  RH WIND       PRES   REMARKS
ALTON          MOSUNNY   32  28  86 SE14      30.25S WCI  22
BELLEVILLE     SUNNY     32  31  98 SE13      30.26S WCI  22
CAHOKIA*       SUNNY     33  29  85 SE9       30.25S WCI  25
$$

ILZ064>066-069>071-074>076-080>082-084>086-088>090-092>094-281600-
SOUTH-CENTRAL ILLINOIS

CITY           SKY/WX    TMP DP  RH WIND       PRES   REMARKS
CARBONDALE     SUNNY     32  27  81 SE6       30.30S WCI  26
MARION         SUNNY     32  28  86 S12       30.31S WCI  23
MT. VERNON     SUNNY     30  25  80 SE9       30.30F WCI  22
$$

ILZ067-068-072-073-078-083-087-091-281600-
SOUTHEAST ILLINOIS

CITY           SKY/WX    TMP DP  RH WIND       PRES   REMARKS
LAWRENCEVILLE  SUNNY     29  21  72 SE13      30.36R WCI  19
$$

ABBREVIATIONS USED IN REMARKS
   TC - TEMPERATURE IN CELSIUS
  WCI - WIND CHILL INDEX
   HX - HEAT INDEX
  VSB - VISIBILITY
$$




USA.gov is the U.S. government's official web portal to all federal, state and local government web resources and services.